Content
SEND FEEDBACK

Daily
Averages
Monthly
Summary
Spain

MAHON, SPAIN


Home > Europe > Spain
Elevation: 269 feet     Latitude: 39 52N     Longitude: 004 14E

WEATHER
 
SELECT A DAY
Number of Records: 250,247;   Date Range: 7/1/96 - 8/30/14
 
SHARE

PRINT THIS DATA

[ ← Previous Day ]
WEATHER ALMANAC - JUNE 26, 2013
[ Next Day → ]
[ °C ]   °F
We're sorry. There is no daily almanac available for Mahon, Spain on June 26, 2013.
WEATHER BY HOUR - JUNE 26, 2013
[ °C ]   °F
Local TimeTemperatureDewpointHumidityBarometerVisibilityWind DirectionWind SpeedGust SpeedPrecipitationEventsConditions
12:30 AM62.6 °F51.8 °F68 %30.21 inNorth (360°)8.1 mphClear
2:00 AM63.0 °F55.0 °F69 %30.21 in9.0 miNNW (340°)6.9 mphClear
2:00 AM64.4 °F55.4 °F73 %30.21 inNNW (340°)6.9 mphClear
5:00 AM64.4 °F51.8 °F64 %30.18 inNorth (350°)11.5 mphClear
5:30 AM64.4 °F51.8 °F64 %30.18 inNorth (350°)10.4 mphClear
6:00 AM64.4 °F51.8 °F64 %30.18 inNorth (360°)11.5 mphClear
6:30 AM64.4 °F51.8 °F64 %30.18 in6.2 miNorth (10°)15.0 mphPartly Cloudy
7:00 AM64.4 °F51.8 °F64 %30.21 in6.2 miNorth (10°)15.0 mphPartly Cloudy
7:30 AM66.2 °F51.8 °F60 %30.21 in6.2 miNorth (10°)18.4 mphPartly Cloudy
8:00 AM67.0 °F53.0 °F52 %30.21 in12.0 miNorth (10°)19.6 mphScattered Clouds
8:00 AM66.2 °F53.6 °F64 %30.21 in6.2 miNorth (10°)21.9 mphPartly Cloudy
8:30 AM66.2 °F53.6 °F64 %30.21 in6.2 miNNE (20°)24.2 mphPartly Cloudy
9:00 AM68.0 °F55.4 °F64 %30.21 in6.2 miNorth (10°)20.7 mphPartly Cloudy
9:30 AM69.8 °F55.4 °F60 %30.21 in6.2 miNorth (10°)17.3 mphPartly Cloudy
10:00 AM69.8 °F53.6 °F56 %30.21 in6.2 miNorth (360°)21.9 mphPartly Cloudy
10:30 AM69.8 °F55.4 °F60 %30.21 in6.2 miNorth (360°)18.4 mphPartly Cloudy
11:00 AM71.6 °F55.4 °F57 %30.21 in6.2 miNorth (360°)17.3 mphPartly Cloudy
11:30 AM71.6 °F55.4 °F57 %30.21 in6.2 miNorth (10°)17.3 mphPartly Cloudy
12:00 PM71.6 °F55.4 °F57 %30.21 in6.2 miNorth (10°)18.4 mphPartly Cloudy
12:30 PM73.4 °F55.4 °F53 %30.21 in6.2 miNorth (360°)18.4 mphPartly Cloudy
1:00 PM73.4 °F55.4 °F53 %30.21 in6.2 miNorth (10°)19.6 mphPartly Cloudy
1:30 PM73.4 °F55.4 °F53 %30.21 in6.2 miNorth (360°)16.1 mphPartly Cloudy
2:00 PM73.4 °F55.4 °F53 %30.21 in6.2 miNorth (360°)17.3 mphPartly Cloudy
2:00 PM75.0 °F55.0 °F39 %30.22 in12.0 miNorth17.3 mphScattered Clouds
2:30 PM73.4 °F53.6 °F50 %30.21 in6.2 miNorth (360°)16.1 mphPartly Cloudy
3:00 PM73.4 °F55.4 °F53 %30.21 in6.2 miNorth (360°)19.6 mphPartly Cloudy
3:30 PM73.4 °F51.8 °F47 %30.21 in6.2 miNorth (10°)19.6 mphPartly Cloudy
4:00 PM73.4 °F53.6 °F50 %30.21 in6.2 miNorth (360°)18.4 mph29.9 mphPartly Cloudy
4:30 PM73.4 °F53.6 °F50 %30.21 in6.2 miNorth (360°)17.3 mphPartly Cloudy
5:00 PM73.4 °F50.0 °F44 %30.21 in6.2 miNorth (10°)20.7 mphPartly Cloudy
5:30 PM73.4 °F48.2 °F41 %30.21 in6.2 miNorth (10°)21.9 mphPartly Cloudy
6:00 PM73.4 °F44.6 °F36 %30.21 in6.2 miNorth (10°)21.9 mphPartly Cloudy
6:30 PM71.6 °F44.6 °F38 %30.21 in6.2 miNorth (10°)18.4 mphPartly Cloudy
7:00 PM71.6 °F46.4 °F41 %30.21 in6.2 miNorth (360°)13.8 mphPartly Cloudy
7:30 PM71.6 °F46.4 °F41 %30.18 in6.2 miNorth (350°)15.0 mphPartly Cloudy
8:00 PM72.0 °F45.0 °F27 %30.19 in16.0 miNorth (350°)12.7 mphScattered Clouds
8:00 PM69.8 °F44.6 °F40 %30.18 in6.2 miNorth (350°)12.7 mphPartly Cloudy
8:30 PM69.8 °F44.6 °F40 %30.18 in6.2 miNorth (350°)10.4 mphPartly Cloudy
9:00 PM68.0 °F44.6 °F43 %30.18 in6.2 miNNW (340°)4.6 mphPartly Cloudy
9:30 PM66.2 °F46.4 °F49 %30.18 in6.2 miNW (320°)3.5 mphPartly Cloudy
10:00 PM64.4 °F48.2 °F56 %30.21 in6.2 miVariable2.3 mphPartly Cloudy
10:30 PM62.6 °F48.2 °F59 %30.21 in6.2 miNW (310°)3.5 mphPartly Cloudy
11:00 PM62.6 °F48.2 °F59 %30.21 inVariable2.3 mphClear
11:30 PM60.8 °F48.2 °F63 %30.21 inNNW (330°)3.5 mphClear
Hourly data recorded from LEMH, located miles away from Mahon, Spain







STORIES FROM OUR PARTNERS